sat.trackr.live / text

‹ back to catalog

STARLINK-2373

NORAD 47796 · 2021-018K

PAYLOAD ACTIVE UNKNOWN

§ Identity

Operator
Country
US
Launch date
2021-03-11
Launch site
AFETR
Launch vehicle
Mass (kg)
RCS (m²)

Purposes: comms

External: N2YO · Heavens-Above · Gunter

§ Orbital elements

Epoch: 2026-09-14T12:43:27.664320Z

Period
93.39 min
Inclination
53.1546°
Eccentricity
0.0002975
Mean motion
15.41982586 rev/d
Perigee alt
438.2 km
Apogee alt
442.3 km
Semi-major
6,818.4 km
B*
1.3280e-3
RAAN
75.7443°
Arg perigee
108.9189°
Mean anomaly
251.2140°
Rev number
30,576

§ Raw data

STARLINK-23731 47796U 21018K   26257.53018130  .00057472  00000+0  13280-2 0  99982 47796  53.1546  75.7443 0002975 108.9189 251.2140 15.41982586305763

JSON: /api/v1/satellites/47796 · /tle

For live sub-satellite position, see the globe view (requires WebGL).

§ Visibility from observer

Set your observer location to see the next 7 days of passes ≥ 10°. The values pass through the URL so the page stays shareable.

No JS? Fill the form by hand. The geolocation button needs JavaScript.